Theta_e
334 322 320 321 314 311 308 302 292 289 291 286 286 289 289 296 298 298 296 297 298 302 307 326 326 324 309 313 316 326 326 316 314 302 302 314 340 344 345 346 350 351 352 355 356 356 355 356 356 355 354 354 354 353 352 351 351 352 352 351 351 351 350 350 350 351 350 349 349 348 348 348 347 346 346 346 345 345 344 342 341 342 342 344 344 345 346 346 346 346 346 346 346 346 347 346 347
321 317 316 317 313 310 305 295 287 289 285 284 288 289 291 294 298 294 295 295 297 311 321 326 328 330 330 329 328 321 318 328 328 326 333 341 344 344 347 349 350 349 353 355 355 355 355 355 355 355 354 354 353 352 352 351 352 352 351 351 350 350 350 349 350 350 350 349 349 348 348 348 347 346 346 346 345 345 346 345 345 344 342 341 344 344 345 345 346 346 346 346 345 346 346 346 345
322 311 310 313 308 308 303 298 291 284 286 283 286 292 295 295 293 297 297 296 305 321 322 324 326 325 325 326 320 315 308 332 333 334 334 341 337 339 347 349 350 351 353 355 355 355 354 354 355 355 354 353 353 352 351 352 352 351 351 351 350 350 350 350 350 350 350 349 348 348 348 347 346 346 346 346 346 347 346 346 346 347 347 346 345 344 345 346 346 346 346 346 345 345 345 344 343
315 314 310 308 304 298 296 293 285 285 285 284 287 289 291 293 294 297 297 297 307 314 317 325 323 328 323 322 325 330 326 328 333 334 333 336 336 343 346 349 352 352 354 354 355 354 354 354 355 354 354 354 353 352 353 352 353 352 350 350 350 351 349 350 350 350 349 349 349 348 348 347 346 346 346 346 346 347 348 349 349 350 349 348 347 346 346 346 345 345 346 345 345 345 344 343 343
310 316 315 306 297 297 296 292 289 285 287 286 285 290 294 294 294 294 296 297 298 299 320 325 322 328 329 326 328 319 321 332 334 337 335 339 344 345 348 350 351 352 352 354 354 354 354 355 354 354 354 354 353 353 353 353 352 352 351 350 350 350 350 350 349 349 349 349 348 348 348 347 346 346 345 346 346 348 350 350 349 349 349 347 346 345 344 345 345 345 345 345 345 344 343 343 343
308 307 311 309 301 302 296 292 291 289 291 290 289 292 293 295 296 297 298 298 299 300 324 321 321 323 326 328 331 324 333 325 334 334 337 338 344 347 349 350 350 350 352 353 354 354 353 354 354 353 354 354 354 353 353 353 352 352 351 350 350 350 350 349 349 349 349 349 347 347 347 347 347 346 346 346 349 350 349 348 348 348 348 347 347 346 346 346 346 346 346 345 345 343 343 342 343
307 302 302 302 300 298 290 286 287 288 296 295 292 296 299 299 299 296 297 299 303 322 325 325 329 326 323 327 332 336 339 338 335 335 340 342 345 346 348 348 349 349 352 353 354 354 353 353 353 353 354 354 354 353 353 352 351 351 352 350 350 350 349 349 349 349 349 349 347 347 347 348 347 347 347 348 349 348 348 349 350 350 349 348 347 347 346 346 347 347 346 345 344 343 343 342 343
312 303 300 294 292 294 290 289 290 291 293 298 298 298 301 301 301 299 297 299 298 307 324 326 326 322 320 333 322 336 337 338 338 342 343 343 344 345 347 348 347 349 351 353 354 353 355 353 353 353 354 353 353 353 352 351 352 351 351 350 350 350 349 349 349 349 349 349 348 348 348 348 347 347 347 347 348 347 350 351 350 350 348 348 347 346 346 346 346 346 346 346 344 343 343 344 343
307 301 303 295 292 291 287 288 289 293 296 298 299 302 310 305 303 299 296 297 308 320 322 325 325 316 322 328 328 334 334 339 341 343 341 341 341 344 346 347 347 347 350 352 353 352 353 353 353 353 353 353 353 353 353 352 352 352 351 350 350 351 350 350 349 349 349 349 349 348 348 348 348 348 347 348 348 351 351 351 350 350 348 347 347 346 347 346 346 346 345 345 344 344 345 344 344
304 300 295 293 290 291 287 288 290 292 293 296 297 299 299 300 299 298 297 310 314 319 325 330 327 321 329 326 329 331 331 339 339 338 339 341 342 344 345 346 347 348 349 351 352 352 352 356 352 352 352 353 352 353 353 352 352 352 351 351 351 351 351 350 350 350 350 350 349 349 349 349 349 348 348 348 350 351 351 350 350 349 348 347 346 346 346 346 347 346 346 345 345 345 345 344 344
298 298 296 292 289 287 288 286 289 293 295 297 298 300 300 299 297 297 304 311 319 322 325 329 326 325 328 328 329 338 339 338 336 334 338 341 344 344 345 347 348 349 348 350 351 352 352 352 355 352 352 351 351 351 352 352 352 351 351 351 351 351 350 350 350 349 350 350 349 349 349 349 350 348 349 350 351 350 350 350 349 348 347 347 346 346 346 346 347 347 346 346 345 345 344 344 344
297 295 294 287 286 287 287 288 291 294 296 294 294 297 298 297 298 299 311 317 320 321 321 325 323 330 324 324 328 336 339 338 336 337 339 343 344 345 345 346 347 348 350 350 351 351 351 352 352 354 351 351 351 352 352 352 351 351 350 350 350 350 350 350 350 350 350 350 350 349 349 349 349 349 350 351 351 351 350 349 348 348 347 347 347 347 346 346 347 346 346 346 346 345 344 343 345
295 292 288 287 286 288 290 290 290 295 293 292 293 299 298 299 299 303 311 319 321 320 319 327 332 328 320 324 332 337 336 337 338 338 341 343 344 345 345 346 347 348 349 350 349 350 349 349 350 350 351 351 351 351 351 351 351 350 350 350 350 350 350 350 350 350 350 351 350 350 350 350 350 351 351 351 351 350 349 348 348 347 347 347 347 346 346 346 346 346 346 346 344 344 343 344 345
298 295 290 290 288 287 290 289 289 289 287 290 292 295 298 299 298 311 318 316 318 318 326 332 332 331 326 330 331 331 335 339 338 340 342 343 344 345 345 346 347 347 348 349 348 349 348 348 348 348 349 349 349 350 352 351 350 350 349 349 349 349 349 350 350 351 351 351 350 350 350 350 350 351 351 351 350 349 349 348 347 347 346 347 347 346 346 346 346 346 346 345 345 345 343 344 344
302 296 291 290 288 288 288 290 286 286 287 291 297 298 298 302 301 310 319 317 320 329 333 335 333 324 320 327 326 330 333 337 339 341 341 342 344 344 344 345 346 346 347 347 348 348 348 348 346 346 347 347 347 347 348 350 350 350 349 350 349 349 349 350 350 350 351 351 350 350 351 351 351 351 351 350 349 348 348 347 347 346 346 346 346 346 346 346 346 346 345 345 346 345 344 345 345
302 294 291 291 286 287 288 288 289 290 290 292 294 297 299 300 302 312 310 320 322 332 327 322 330 324 328 329 331 335 336 337 339 340 340 340 341 342 343 343 344 344 345 346 346 347 347 346 346 345 345 346 346 346 346 347 350 350 350 350 349 349 350 350 350 350 351 351 351 350 351 350 349 349 349 349 349 348 347 345 347 347 346 346 346 346 346 346 346 346 345 345 345 345 345 345 346
298 296 290 285 286 287 286 288 287 287 290 293 295 296 299 297 299 321 325 327 326 322 329 331 328 334 330 330 336 336 335 338 339 338 337 337 338 338 340 341 341 341 342 344 345 346 346 346 346 345 345 346 347 346 346 346 347 350 350 350 350 350 350 350 350 350 350 349 349 349 348 345 345 345 346 346 349 346 347 347 347 347 346 346 346 346 345 346 345 345 345 344 345 344 344 345 345
298 291 287 286 286 288 288 291 290 294 293 294 295 297 295 295 302 316 322 322 323 325 327 329 333 333 335 336 337 335 335 335 336 334 334 334 335 335 335 337 338 337 339 341 343 345 345 345 345 345 345 346 346 345 344 344 346 348 345 346 346 348 349 349 347 345 348 343 348 346 341 345 342 343 344 348 344 346 345 347 347 347 346 346 346 345 345 345 345 345 345 345 344 344 342 334 340
294 288 287 288 287 291 292 292 293 294 293 294 295 295 296 296 299 307 315 316 318 320 324 327 328 330 332 334 333 332 333 333 333 333 332 332 332 330 330 333 334 336 337 339 341 343 344 344 345 345 345 345 345 345 345 345 344 343 341 342 345 347 347 346 343 345 341 341 341 341 342 341 341 342 343 345 344 346 345 347 347 346 346 346 346 346 345 345 345 344 345 345 344 341 334 332 332
295 291 287 289 291 291 293 294 296 296 295 295 295 296 295 298 299 301 312 313 316 318 319 322 325 326 328 330 331 330 331 331 332 332 332 330 329 330 330 330 332 334 336 339 340 343 343 343 343 344 344 345 344 344 344 344 343 342 340 341 342 342 342 343 341 341 340 340 341 340 338 340 340 339 347 348 347 343 344 346 346 346 346 346 346 345 345 344 344 345 345 342 339 336 333 332 331
294 294 290 291 292 293 298 297 297 296 296 295 295 295 295 298 298 303 309 314 311 313 319 325 325 327 328 329 329 329 329 330 332 333 330 329 330 330 331 331 332 334 335 338 340 341 341 341 342 343 344 344 344 344 344 344 344 344 342 340 341 340 341 340 340 340 339 340 339 339 338 339 339 339 339 340 340 339 339 340 340 339 337 337 343 331 335 337 335 332 334 335 334 334 333 331 330
293 295 296 294 293 293 297 296 295 295 297 294 294 296 297 297 301 312 313 306 300 310 318 326 329 329 329 329 329 329 329 329 330 330 328 327 327 327 328 330 334 335 337 335 336 338 339 341 341 341 343 343 343 343 343 344 344 343 342 342 340 341 341 340 339 339 338 338 338 339 339 336 336 336 337 338 337 337 337 336 335 335 332 332 335 332 331 331 328 330 333 334 335 334 332 331 331
292 292 293 293 295 295 297 297 295 296 295 296 296 297 297 295 297 304 301 296 296 308 325 331 331 331 332 331 329 328 328 327 327 328 328 327 326 326 328 330 331 333 335 334 336 336 338 339 339 339 340 340 341 342 343 343 341 342 342 342 341 340 341 340 340 338 338 337 337 339 337 335 334 332 336 337 337 336 336 334 333 333 333 333 333 334 331 328 328 329 330 333 334 334 333 330 329
295 291 293 295 294 295 296 296 295 294 294 295 295 296 297 295 295 296 296 296 298 321 331 333 332 332 332 329 329 328 327 325 326 328 329 328 327 326 329 330 332 333 332 332 333 334 337 336 337 337 336 338 338 340 341 340 339 340 341 344 341 343 341 339 339 339 337 337 337 337 338 335 334 333 336 337 337 335 334 333 332 331 332 333 332 331 329 328 327 327 328 329 334 334 333 330 329
292 291 293 295 296 296 296 296 297 294 293 293 297 297 296 294 295 294 296 301 325 329 333 332 331 331 330 329 327 327 326 325 325 326 329 328 327 329 329 330 332 333 332 332 333 334 335 336 336 335 335 336 337 338 339 337 338 339 340 340 339 344 338 338 338 339 337 336 337 337 337 334 333 334 334 336 336 334 332 332 331 331 331 332 332 329 328 328 326 327 327 329 330 331 330 329 329
292 295 295 294 295 295 295 293 293 294 295 296 296 293 293 293 295 296 297 298 328 333 332 331 330 329 329 328 326 326 325 325 325 325 326 327 328 328 328 328 330 331 332 332 333 334 335 337 336 335 334 334 335 337 337 335 336 337 337 339 339 343 337 336 337 338 337 336 336 337 337 335 334 334 334 334 334 332 332 331 331 330 331 331 330 330 327 327 325 326 327 328 330 330 329 329 328
292 293 293 294 296 295 294 294 293 294 295 294 295 292 294 294 296 291 292 296 330 331 330 329 329 328 329 328 326 325 325 324 325 326 326 326 328 328 328 328 329 330 331 331 332 333 335 336 336 336 335 337 335 336 335 335 335 336 336 337 340 339 337 336 337 337 336 335 336 336 336 336 335 334 334 333 333 332 331 331 331 330 330 329 330 329 328 328 325 327 328 326 329 330 329 329 328
295 295 294 292 292 292 293 292 293 294 297 293 295 294 293 293 295 292 295 317 331 329 328 328 328 328 328 327 325 325 325 326 326 326 324 324 326 327 327 328 328 328 329 330 332 332 333 334 335 335 334 335 335 335 337 334 335 336 336 335 337 337 336 335 335 336 337 335 336 335 335 335 336 334 334 333 333 332 331 330 330 329 330 328 329 328 328 328 326 325 326 327 331 330 328 327 328
295 295 291 290 289 293 293 294 295 295 296 294 294 293 292 294 293 293 293 318 327 328 327 328 327 327 328 327 324 324 325 325 325 325 325 326 327 329 328 329 329 328 330 331 331 331 332 333 334 334 335 335 334 334 335 334 334 335 335 335 335 335 335 334 334 336 336 335 335 335 334 335 335 334 334 334 335 332 331 330 329 330 330 329 329 328 328 326 328 328 329 330 329 328 327 327 327
296 293 289 290 287 287 290 294 295 295 297 295 296 286 287 290 293 294 304 319 322 325 325 326 326 327 327 326 324 324 326 325 324 325 326 326 327 328 328 329 331 329 329 329 329 329 331 332 333 334 335 334 334 334 335 334 334 335 335 334 335 334 334 333 334 334 335 335 335 335 335 335 335 334 334 333 333 331 331 331 329 329 330 330 330 329 328 328 327 328 328 328 331 328 326 325 325
292 291 290 286 287 284 289 293 294 294 296 295 295 287 288 293 295 294 299 319 321 321 322 323 325 325 326 325 324 324 325 326 325 325 326 327 328 328 328 329 330 330 328 328 329 330 333 332 333 333 335 333 336 335 335 334 333 334 334 333 334 334 333 333 333 333 334 335 337 337 335 335 335 334 334 333 332 331 331 330 330 331 332 331 330 330 330 329 329 328 328 326 325 325 324 326 325
287 288 283 282 286 284 289 292 293 293 295 296 294 287 290 293 295 294 295 313 319 318 321 321 324 325 325 325 325 324 325 326 325 325 326 327 328 327 327 327 329 329 329 329 330 331 332 332 333 332 332 332 334 335 334 334 334 333 333 335 332 333 333 332 332 333 334 336 338 338 336 335 335 334 334 333 331 330 330 330 330 331 333 333 331 331 331 329 329 328 328 326 325 324 325 323 322
284 286 282 284 285 284 288 291 292 294 294 294 294 287 287 291 291 293 296 311 316 317 319 318 323 324 325 325 324 324 324 325 325 325 326 327 328 328 327 327 328 329 329 331 331 332 332 331 333 331 330 331 332 334 334 334 333 332 332 335 335 335 334 333 333 333 334 336 338 338 336 336 335 334 334 333 331 330 330 329 330 332 333 332 330 330 331 330 329 328 325 325 326 324 323 322 322
280 284 285 286 286 284 285 289 292 293 294 291 292 290 291 292 291 292 293 306 315 314 316 316 320 324 325 325 324 323 324 324 323 324 325 327 328 327 327 329 328 329 330 331 332 332 331 331 331 331 330 329 331 333 334 334 333 332 333 334 336 335 335 336 335 335 335 336 337 337 337 336 336 334 333 332 331 331 330 331 331 331 330 330 329 330 329 329 329 326 325 324 324 325 323 323 322
281 282 282 284 284 287 286 287 289 293 293 291 291 289 291 293 293 293 292 302 311 313 315 315 317 320 323 324 323 323 324 323 324 325 326 326 326 327 327 328 328 330 330 331 332 331 331 330 330 329 327 327 330 332 334 335 334 333 332 333 334 334 335 336 336 335 335 334 335 337 337 336 335 332 332 333 332 332 331 331 331 330 330 329 329 329 328 328 328 325 324 325 326 324 324 323 324
285 287 284 284 285 284 286 288 291 294 290 289 289 289 291 293 293 292 293 304 303 310 313 314 314 315 319 322 322 322 323 324 326 325 325 325 326 328 328 328 328 329 331 332 331 331 330 329 328 326 327 329 330 331 334 333 333 331 331 332 332 333 334 334 333 333 334 334 336 336 337 334 332 331 332 331 330 331 330 330 329 330 330 330 329 328 327 327 327 326 325 325 324 325 324 324 325
287 287 286 286 285 285 288 290 293 293 291 289 290 291 291 292 292 291 293 299 309 310 312 313 312 315 319 320 321 322 322 323 326 326 325 326 327 328 329 328 328 329 331 332 332 330 329 329 328 327 329 330 330 331 333 332 330 330 331 330 330 332 332 334 333 332 333 335 336 335 334 332 331 331 332 331 330 332 330 329 329 330 330 330 329 329 329 328 328 327 327 325 324 324 325 326 325
289 287 286 285 286 285 289 291 294 293 291 288 289 288 290 292 292 291 294 295 299 307 309 311 312 315 319 319 320 320 321 321 324 324 323 324 326 327 328 328 329 328 330 331 331 330 329 329 328 328 330 331 331 332 333 333 333 332 331 330 331 331 332 332 332 333 334 336 336 333 331 332 332 331 331 330 330 331 329 328 328 329 329 329 329 329 329 330 328 327 327 325 326 325 324 327 326
289 286 285 285 285 286 290 291 292 292 291 287 288 288 290 291 291 292 294 295 298 297 302 308 311 312 316 318 319 318 319 321 322 324 322 323 326 327 327 327 328 329 330 331 332 331 330 329 329 328 331 332 332 332 333 333 333 333 332 331 332 331 334 334 334 335 337 336 335 334 331 331 330 331 331 331 329 330 329 329 328 328 328 330 328 328 329 328 327 327 327 325 324 325 326 328 326
286 287 286 283 284 288 284 288 290 292 291 288 287 289 287 290 291 292 294 300 305 307 308 304 306 311 311 315 317 318 320 320 320 322 322 323 325 326 326 326 327 329 329 330 331 332 332 330 329 328 331 333 333 333 333 333 333 332 330 328 331 332 331 333 334 334 335 335 333 332 332 331 330 330 331 331 331 330 328 328 328 328 328 330 328 328 328 326 325 326 326 326 326 323 324 325 327
286 287 285 285 288 287 287 288 290 290 291 291 289 284 284 287 288 290 294 301 309 310 312 312 314 310 311 316 318 320 321 321 321 321 322 323 324 325 325 326 328 328 329 330 330 332 333 332 332 331 330 333 334 333 333 332 332 330 329 329 330 330 331 331 330 330 332 333 333 330 330 330 330 330 331 331 331 329 329 328 328 329 328 329 328 327 326 326 326 327 326 325 325 324 323 325 326
284 287 289 288 289 290 289 289 288 282 283 289 286 278 284 285 290 291 293 304 307 310 311 311 312 314 314 310 313 318 321 323 322 322 322 322 324 325 325 326 328 329 329 329 330 332 332 333 334 334 334 334 334 334 333 331 330 328 327 326 325 325 325 326 326 327 329 330 331 330 330 329 329 330 331 331 331 330 328 328 329 329 328 328 328 327 326 326 326 326 327 326 324 325 325 324 323
283 285 289 290 289 289 287 288 285 280 281 290 290 281 279 281 293 295 295 299 305 310 311 312 313 313 315 316 313 313 318 320 323 323 323 322 323 324 325 325 326 327 326 328 330 331 332 332 334 335 334 334 335 335 334 332 330 329 328 328 327 326 326 327 329 330 330 332 332 329 329 329 330 329 329 330 330 330 329 328 328 328 329 328 329 327 326 326 327 327 328 326 325 325 325 323 324
282 286 290 291 289 288 287 286 284 282 285 289 286 282 280 280 289 296 299 297 303 307 309 310 312 313 313 315 317 315 314 318 321 321 323 324 324 324 323 324 325 325 325 327 327 328 329 329 332 334 335 335 335 335 335 334 331 329 327 327 328 327 327 327 328 329 331 332 331 330 329 329 329 329 329 329 330 331 329 328 328 328 328 328 329 327 326 326 326 328 328 327 326 325 325 324 324
284 289 291 290 290 288 286 285 284 283 284 283 281 287 280 278 286 299 301 298 301 304 307 309 311 312 313 314 315 316 318 318 318 320 321 323 323 323 324 324 324 324 324 324 325 326 327 328 329 330 333 332 332 333 333 333 332 330 328 327 326 327 325 326 329 329 329 331 330 329 328 329 329 329 329 329 329 330 331 330 329 328 328 328 329 327 326 326 326 326 327 327 325 324 324 324 325
289 292 292 290 289 288 286 284 286 282 281 278 281 284 278 278 288 297 302 301 300 303 307 309 311 312 312 313 314 315 316 316 317 319 321 322 322 322 323 322 322 322 324 325 325 325 326 326 324 325 327 330 330 331 332 332 332 331 328 327 325 324 324 325 329 328 328 330 329 328 328 328 329 329 328 328 328 329 330 331 330 328 327 328 329 326 326 326 325 326 327 327 326 324 324 324 324
291 291 290 287 285 284 285 283 281 281 278 276 280 285 280 279 289 296 297 298 302 304 306 308 310 311 312 313 314 315 316 316 316 316 318 319 321 322 321 320 321 322 322 324 324 325 325 324 324 324 326 328 330 331 331 331 332 331 329 328 326 324 324 326 327 327 328 328 328 328 328 327 329 329 328 327 328 329 329 331 329 328 328 329 328 325 325 326 325 325 326 326 326 325 324 323 322
291 287 283 285 284 282 280 278 279 276 272 276 281 283 284 281 288 297 302 305 306 305 304 306 308 309 310 312 313 314 315 315 316 316 316 317 318 319 320 319 320 320 320 321 321 321 322 323 323 323 325 327 329 331 332 332 330 330 330 328 326 325 324 325 327 327 327 327 327 327 328 328 328 328 327 326 326 327 329 330 330 328 327 327 327 326 325 326 325 325 324 325 326 325 324 324 322
288 286 285 281 275 275 275 276 276 275 276 283 283 288 288 289 295 299 302 304 305 306 306 306 307 308 309 311 311 312 312 312 312 313 314 315 316 317 317 317 318 317 317 319 319 320 322 323 323 323 325 326 325 327 330 330 327 327 327 325 324 325 325 326 327 327 328 328 328 327 327 327 327 327 327 327 326 326 328 328 327 326 325 326 326 325 325 325 325 325 324 324 325 324 324 324 323
286 285 280 278 274 272 269 271 271 275 279 282 282 286 287 296 299 303 302 305 306 306 307 307 307 307 308 309 309 309 309 310 310 310 310 310 311 313 315 316 318 317 318 318 318 319 321 322 322 322 322 322 323 324 325 324 325 327 326 326 325 325 325 327 328 328 328 328 328 327 327 328 327 328 328 327 327 327 327 327 327 326 326 326 326 326 325 325 325 325 324 324 324 324 324 323 323
286 285 286 282 276 274 269 274 271 275 276 279 283 283 284 287 293 305 305 307 307 307 306 307 307 307 307 307 307 307 307 307 307 308 308 308 309 310 311 313 314 316 318 318 318 318 320 323 322 321 321 322 323 323 324 324 325 327 326 327 327 326 326 327 326 327 328 328 328 327 327 328 328 328 327 327 325 326 326 326 326 325 325 325 325 325 325 325 325 325 324 324 324 323 324 323 322
286 286 286 283 282 279 277 275 277 276 277 276 282 280 291 292 303 305 307 307 306 306 305 305 304 305 305 304 304 304 305 305 306 305 305 306 307 308 309 309 311 312 314 316 319 318 318 320 321 321 321 322 323 323 323 324 325 325 325 324 325 327 327 326 324 324 326 328 327 327 326 326 327 326 326 325 324 326 325 326 326 326 325 325 325 325 325 325 325 325 325 325 324 325 323 323 322
286 287 283 284 287 286 276 277 280 274 275 274 283 292 296 301 303 304 304 303 303 304 303 303 302 303 302 301 302 302 303 304 304 304 304 304 305 306 306 307 308 309 310 312 315 319 319 317 318 319 319 321 321 322 323 324 325 324 323 324 324 323 324 324 324 324 324 325 325 325 324 324 324 324 325 325 324 324 325 326 326 326 325 325 324 324 324 324 325 325 325 325 325 324 323 323 322
286 282 285 289 290 288 283 276 271 269 269 273 283 288 289 285 283 302 301 300 301 301 300 300 300 300 300 300 300 301 301 302 303 304 304 304 304 304 305 306 306 307 308 310 311 314 319 321 319 319 318 319 321 321 322 323 323 322 322 323 324 323 323 323 323 323 323 323 322 323 321 321 322 324 326 326 324 324 324 328 325 325 324 323 323 323 324 324 324 324 324 326 327 324 323 321 321
289 287 290 288 279 281 280 277 271 272 271 273 282 287 290 291 288 296 298 298 298 299 299 298 298 298 298 299 299 300 301 301 301 302 302 302 302 303 303 304 305 305 307 308 310 312 313 316 320 320 319 320 322 322 323 323 323 323 324 324 323 323 322 323 324 324 323 323 323 322 322 322 323 323 325 325 324 324 324 325 325 324 323 323 323 323 324 324 324 322 323 326 326 324 323 321 320
294 292 290 290 283 279 279 278 278 277 268 274 280 286 284 294 294 299 298 298 298 297 297 297 297 297 297 298 298 299 299 299 300 300 301 301 301 302 303 303 303 304 305 306 308 308 310 311 313 315 320 324 323 322 322 322 322 323 323 324 324 324 323 324 323 323 324 324 323 322 323 322 323 324 324 325 325 324 324 324 324 323 322 322 323 322 323 323 322 322 323 324 325 325 323 321 320
287 287 285 287 285 287 285 284 281 279 270 267 276 276 284 293 300 299 297 298 298 297 296 296 296 297 298 298 298 298 298 298 299 299 299 300 301 301 302 303 303 304 305 305 306 306 307 308 309 312 313 318 322 324 323 322 322 322 322 322 322 323 322 322 323 323 323 323 324 323 323 324 323 323 324 324 324 325 325 324 324 323 322 322 322 321 322 321 321 322 323 324 324 324 322 319 322
289 287 287 287 285 283 280 277 284 281 277 272 274 272 285 296 300 297 296 297 297 298 297 296 296 297 297 298 298 298 298 298 298 299 299 300 300 301 301 302 303 303 303 303 304 304 305 305 307 308 310 313 315 320 323 322 322 322 321 321 321 322 322 322 322 322 322 322 323 322 322 322 322 323 323 324 323 324 324 324 323 322 322 322 322 321 320 320 320 321 322 324 323 323 321 319 321
Wind_Speed
1 0 2 1 3 2 2 3 1 2 2 3 2 1 3 1 3 5 6 5 1 1 0 2 4 3 0 2 8 7 2 3 1 3 2 1 1 7 7 10 10 10 12 10 9 9 9 11 13 15 15 16 16 16 16 16 16 16 16 17 17 18 18 18 19 19 19 19 19 19 20 21 21 21 20 21 20 20 19 18 17 17 16 17 16 17 16 15 15 16 16 16 15 16 16 16 16
0 0 1 0 1 1 0 1 3 1 5 1 6 2 4 2 0 5 6 4 2 3 3 6 8 11 12 10 8 2 4 5 0 3 3 2 6 4 7 11 12 12 10 10 9 9 9 10 14 13 15 16 16 16 16 16 16 16 16 17 16 17 17 18 18 18 18 18 19 19 20 20 20 19 20 20 20 19 18 19 19 19 17 15 17 16 15 16 15 14 15 15 15 14 15 14 14
1 1 2 3 3 3 0 2 1 1 2 3 6 7 2 3 5 7 10 6 4 6 3 4 4 4 2 3 5 2 1 1 5 4 4 3 11 2 6 8 10 10 12 9 9 9 9 10 15 13 15 15 16 17 16 16 16 16 16 17 17 17 16 17 17 17 18 18 18 18 19 19 19 19 19 19 19 17 17 17 19 19 19 18 16 16 16 14 14 14 14 14 14 13 13 13 13
1 3 3 2 0 3 1 2 5 6 2 6 4 4 3 3 7 9 7 5 6 4 1 2 4 2 2 8 3 4 3 1 1 6 5 5 1 7 8 9 10 9 8 8 8 9 8 12 15 13 14 15 16 16 16 16 16 16 16 16 17 16 16 16 16 16 16 17 17 18 19 19 19 18 18 18 18 17 17 17 18 19 19 18 17 16 15 14 14 14 13 13 13 12 12 12 12
1 2 3 3 3 1 1 1 3 3 3 4 2 4 4 5 8 7 7 2 4 1 0 2 3 5 2 5 1 2 3 4 3 1 3 3 7 7 9 9 10 10 10 9 9 9 9 17 14 13 13 14 15 16 16 16 16 16 17 17 16 16 16 15 16 16 16 16 17 17 18 18 18 18 18 18 18 17 18 18 18 18 17 16 15 15 15 14 13 13 13 12 12 12 12 12 12
4 3 3 2 1 2 3 1 0 3 7 3 1 4 4 6 4 6 10 7 1 3 0 2 3 3 3 2 1 4 2 1 3 2 3 5 10 10 10 9 12 10 10 8 8 8 9 15 14 14 13 14 15 15 15 16 16 16 17 17 17 16 16 15 16 16 16 15 16 17 17 18 17 17 17 17 16 17 18 17 17 16 15 15 14 14 14 14 13 13 13 13 12 12 12 11 11
1 3 3 2 2 3 4 2 3 4 9 8 4 5 6 7 6 5 9 3 1 5 2 1 6 6 5 0 3 2 3 3 4 3 4 10 10 10 9 9 10 11 9 8 8 9 11 14 14 14 14 14 15 16 15 16 16 16 17 16 16 16 15 15 15 16 15 15 15 16 16 17 17 16 16 16 16 16 16 16 17 16 15 14 13 13 13 13 13 13 13 13 13 12 12 11 10
1 1 1 2 1 2 0 2 4 4 5 7 4 5 9 9 5 1 7 0 0 2 2 3 2 4 1 3 4 5 8 4 9 12 13 10 10 9 8 9 11 10 11 9 8 8 15 15 14 14 14 15 15 15 15 15 15 16 17 16 16 16 15 15 14 14 15 14 14 15 16 17 16 15 15 16 16 16 16 16 16 16 14 13 12 12 13 13 13 13 13 13 12 12 12 12 12
2 4 0 4 0 2 1 3 5 3 7 5 9 9 13 12 10 4 6 3 0 1 4 2 1 4 0 7 5 3 5 9 12 13 12 11 10 9 7 8 12 10 10 9 9 9 10 14 14 14 15 16 16 15 14 15 15 15 16 15 15 13 12 12 13 13 12 12 13 14 15 16 15 15 15 15 15 15 16 16 16 15 13 12 11 11 12 12 13 13 13 13 12 12 12 12 12
1 2 1 2 3 1 1 6 1 5 4 6 6 9 9 6 4 4 5 0 0 4 3 5 3 7 6 10 2 5 3 10 13 11 9 10 10 10 9 8 11 13 11 10 9 9 9 15 14 13 14 15 16 15 14 14 14 14 14 13 13 12 11 11 11 11 12 12 12 12 13 14 14 14 14 14 15 16 15 15 15 14 13 12 11 10 11 12 13 13 13 13 12 13 11 11 12
0 3 2 2 1 0 3 5 4 6 4 4 9 13 13 7 4 1 1 3 1 1 1 4 8 6 6 5 4 2 5 9 15 11 8 10 9 10 10 9 10 11 12 10 9 9 9 10 16 13 13 14 14 14 13 13 13 13 12 12 12 12 12 12 12 12 12 12 13 13 13 13 12 13 13 15 15 16 15 15 15 14 12 11 10 10 9 10 12 13 13 12 13 11 11 12 12
1 1 1 3 2 4 4 2 5 8 9 4 5 7 3 5 3 2 1 5 0 2 1 2 5 5 7 1 3 5 7 5 9 11 10 10 9 9 9 7 8 9 11 11 9 8 8 9 9 14 14 14 14 14 13 13 13 12 13 13 13 12 12 13 13 13 13 13 13 12 12 12 13 13 14 14 15 16 15 14 14 13 11 11 10 10 9 9 11 13 13 13 12 11 12 13 13
2 1 5 3 3 2 2 2 6 4 6 5 4 1 0 2 2 5 3 3 1 1 0 1 13 3 3 2 3 6 7 5 7 9 10 9 9 7 7 8 9 12 10 10 10 8 8 7 7 8 11 16 14 14 13 13 13 13 13 13 12 12 12 12 12 13 13 13 13 12 12 11 12 12 14 14 15 15 15 14 13 12 10 10 10 10 9 9 10 12 13 12 12 12 12 13 13
2 5 5 3 1 1 1 4 2 4 5 5 3 4 1 1 2 6 6 5 0 1 1 9 6 11 8 7 5 5 6 8 10 9 9 10 9 9 10 10 11 11 12 11 10 9 7 6 7 7 9 8 8 11 12 12 12 12 12 12 12 12 11 11 12 12 12 12 13 12 12 12 12 14 15 15 15 14 14 13 12 11 10 10 10 10 9 9 10 11 12 12 12 11 12 13 13
2 1 2 1 1 1 2 2 2 2 5 2 3 3 3 2 3 0 4 6 3 1 4 2 2 1 6 9 5 9 10 6 9 10 12 12 13 10 10 8 8 10 11 11 9 9 8 7 6 6 6 5 6 5 5 9 12 11 12 12 12 12 11 11 12 12 12 12 13 12 12 13 14 15 16 15 15 14 14 13 12 10 9 9 10 9 9 9 9 10 12 12 12 11 11 12 11
3 3 2 0 1 2 4 2 2 1 7 1 5 2 1 1 2 2 2 1 3 3 2 1 2 0 6 9 15 14 10 8 9 12 12 14 13 11 9 7 6 7 6 7 8 7 7 7 6 6 6 6 5 5 6 7 10 11 11 11 11 11 11 10 11 12 13 12 12 13 13 11 11 11 15 13 15 14 12 9 11 10 8 8 8 9 8 8 9 10 12 12 11 11 11 10 10
1 2 1 1 4 2 3 3 2 1 6 3 6 3 0 2 3 2 1 5 10 3 5 4 1 1 10 5 11 14 10 8 11 13 13 10 9 8 7 6 5 4 2 5 6 7 7 7 9 7 7 7 6 5 4 5 7 10 8 10 10 10 10 10 10 12 12 11 10 10 9 6 5 6 8 7 13 8 9 11 11 10 8 7 7 8 7 8 8 10 11 11 10 10 9 11 13
2 1 2 3 3 1 4 3 4 0 1 4 4 1 5 3 3 1 4 8 5 6 7 2 8 6 1 4 12 13 10 12 11 13 11 10 8 8 5 3 6 5 5 5 5 7 8 8 10 6 5 6 5 3 2 2 3 6 3 4 4 6 8 9 8 5 7 3 9 6 3 5 5 5 5 9 5 8 9 13 11 10 9 8 7 7 7 7 7 8 10 10 10 10 9 5 6
3 1 3 7 3 6 3 3 4 1 4 5 3 3 2 1 2 0 2 0 1 5 4 3 8 6 8 11 13 13 12 11 9 9 12 11 9 10 5 3 3 5 5 5 5 6 3 5 5 6 6 5 5 4 3 3 3 3 2 3 4 6 6 4 3 4 3 3 3 3 3 4 4 4 5 6 6 10 9 12 11 10 9 8 7 8 7 6 6 6 9 9 10 9 5 4 4
4 4 4 6 5 4 5 4 9 5 4 4 2 3 4 0 1 0 2 4 2 6 6 3 5 8 8 9 12 12 12 10 9 11 11 12 11 11 10 10 7 5 4 5 6 2 3 4 5 4 5 5 5 4 4 4 3 3 3 3 3 3 3 3 3 3 3 3 4 3 3 3 3 3 10 14 10 6 7 11 11 10 9 8 7 5 7 6 5 5 8 9 6 4 4 5 4
2 2 4 4 4 3 9 6 7 8 4 4 1 2 3 3 0 2 3 4 2 3 5 9 10 11 11 11 12 12 12 10 10 11 12 13 10 8 11 11 8 7 3 4 3 4 4 4 4 4 4 5 5 5 5 4 4 4 3 3 3 4 4 3 3 3 3 4 4 4 3 3 4 3 3 3 3 4 4 4 4 4 3 2 5 2 4 3 3 3 3 4 3 3 4 4 5
2 8 3 1 2 1 11 3 9 6 4 5 1 2 1 1 2 3 5 3 2 4 5 7 13 13 15 15 12 12 12 11 11 10 11 11 10 6 3 5 5 5 5 6 6 5 5 5 5 4 4 4 4 4 4 4 5 3 3 3 3 3 4 4 4 3 4 4 4 4 4 3 3 3 3 3 3 3 4 4 4 4 3 2 2 2 2 4 3 3 3 4 3 3 5 4 4
3 4 3 5 5 6 3 0 5 7 4 3 3 2 1 2 1 4 5 5 2 2 7 12 12 14 14 14 15 14 13 12 12 14 14 12 9 10 7 4 6 7 5 5 6 5 5 6 5 4 4 4 4 4 5 4 4 4 3 3 4 3 4 4 4 4 4 4 4 5 5 4 4 3 4 4 4 3 4 4 4 4 4 2 2 2 1 2 2 2 3 4 3 4 5 4 5
3 6 1 5 4 9 8 6 8 4 4 4 3 2 3 2 6 1 2 2 3 3 9 11 9 9 12 14 12 14 12 12 10 11 15 16 15 12 9 8 6 6 5 5 4 5 5 6 6 5 5 5 4 5 5 5 4 5 4 5 5 5 5 5 4 4 4 4 4 4 4 5 5 4 4 5 5 4 4 4 4 4 4 3 2 2 1 0 1 1 2 4 4 4 5 4 5
4 4 3 6 5 8 8 10 10 6 7 5 1 1 5 4 2 3 4 2 4 6 10 11 11 10 10 13 12 12 12 11 11 9 8 7 5 6 4 2 6 9 9 7 6 6 6 7 7 7 6 5 4 4 5 5 5 5 5 4 5 5 4 4 4 4 5 4 4 5 5 6 5 5 5 5 4 4 3 4 4 4 4 4 3 2 1 1 0 1 1 5 4 5 4 5 5
5 9 5 4 5 6 7 5 7 9 4 1 0 5 6 7 2 2 7 1 5 9 11 13 12 11 11 12 13 13 14 12 11 11 11 7 7 6 6 4 5 8 8 8 7 7 7 8 9 8 7 6 5 5 5 5 6 6 6 6 5 5 4 4 4 5 5 5 5 5 6 6 6 6 5 4 5 4 3 3 4 4 4 3 4 3 2 2 3 1 1 4 5 4 5 5 5
3 4 4 7 10 7 3 7 6 8 5 4 4 4 6 3 2 4 2 3 7 9 10 10 12 12 11 10 10 11 15 14 13 11 8 7 8 10 9 6 8 10 8 10 9 8 7 7 7 8 7 6 6 6 6 6 6 6 6 6 6 5 5 5 5 5 5 5 6 6 6 5 5 5 5 5 4 4 4 4 4 3 3 4 4 4 3 4 3 3 3 5 5 4 4 5 5
3 3 3 5 7 5 5 4 6 1 3 5 7 7 4 2 1 6 1 5 11 13 10 10 9 10 10 10 10 9 10 10 10 12 14 14 11 11 10 10 11 10 10 10 9 7 8 8 8 7 7 7 6 6 6 6 6 6 6 5 6 6 6 5 5 6 6 6 5 6 5 5 5 5 6 5 5 5 5 4 4 4 4 4 4 3 4 3 4 1 2 3 4 4 4 4 4
3 1 4 7 5 3 1 6 4 5 3 4 5 2 5 1 4 5 2 6 8 13 12 11 9 9 9 10 9 8 9 10 10 10 14 13 11 11 13 11 12 12 9 9 6 6 8 8 8 7 8 8 8 8 8 7 6 5 6 6 5 6 6 6 6 7 7 6 6 6 5 5 5 6 6 6 6 6 6 5 4 4 4 4 4 4 3 2 2 4 4 3 4 4 4 4 3
1 1 2 3 4 4 4 1 0 5 1 6 2 4 8 7 10 2 1 8 6 9 9 9 8 8 8 9 9 9 8 9 10 10 10 10 10 11 12 11 11 10 8 3 3 5 3 4 6 7 9 10 11 9 7 7 6 5 5 5 5 6 6 6 6 6 6 5 5 5 6 6 6 5 6 5 5 6 6 6 5 5 4 4 4 4 5 4 4 4 5 5 5 6 5 4 5
1 2 2 1 0 3 4 0 1 5 0 2 2 2 9 10 11 3 2 7 13 10 9 9 9 7 8 8 9 10 10 10 11 9 9 9 9 9 11 9 10 6 3 4 7 7 7 7 6 7 9 10 10 8 6 6 5 5 5 4 4 5 4 5 4 5 5 5 5 6 6 6 5 5 5 6 6 5 6 5 5 5 4 3 4 4 5 5 5 6 5 5 3 3 3 4 4
2 1 4 4 2 5 6 4 3 2 1 0 4 3 9 9 11 5 6 6 9 10 10 10 10 9 9 9 9 10 9 7 6 7 10 10 10 9 8 10 8 5 7 5 5 6 8 8 9 8 8 10 9 8 6 6 6 5 4 4 3 3 3 3 4 5 5 5 6 6 6 6 6 6 6 6 6 5 6 5 4 3 3 4 4 4 5 6 5 6 4 7 6 3 4 3 3
5 3 3 1 0 4 4 3 2 3 1 1 5 7 3 5 2 0 0 8 8 10 10 11 12 11 10 9 8 9 9 8 7 8 11 11 9 7 7 7 7 5 5 7 7 6 7 8 8 9 12 13 9 8 8 6 5 4 5 5 5 4 4 3 3 2 3 5 5 6 6 6 6 6 6 6 6 5 3 5 4 1 3 5 4 4 4 4 5 6 3 2 6 6 4 4 4
3 2 1 1 0 2 1 6 4 0 3 1 1 2 8 8 6 3 2 4 10 9 9 7 8 8 8 8 9 10 11 11 12 12 14 11 7 4 4 7 6 6 6 7 7 8 8 7 7 10 5 3 6 7 7 7 5 4 4 4 5 5 5 4 3 3 4 5 5 6 6 6 7 6 5 6 5 5 5 5 4 1 2 5 5 5 5 4 4 2 6 2 2 6 5 5 5
2 0 2 2 2 0 3 1 3 2 1 3 2 4 10 11 7 6 3 2 8 8 6 8 8 8 8 8 9 11 11 13 13 12 11 8 4 4 5 7 7 7 7 8 7 6 5 6 6 6 2 3 5 6 7 7 6 4 4 4 5 5 5 5 5 5 4 3 4 6 7 7 4 4 4 5 7 7 7 6 4 4 3 4 6 6 5 4 5 2 1 5 3 1 4 4 5
4 2 1 1 2 4 3 4 3 2 3 4 6 8 11 12 9 4 5 4 5 7 6 6 5 4 4 7 8 10 11 13 9 5 5 4 3 6 6 7 7 7 7 7 7 7 8 7 6 4 3 4 4 5 6 6 6 6 6 4 5 5 5 5 4 5 3 5 6 5 7 6 4 4 6 2 3 6 6 5 6 5 4 5 6 7 6 6 7 8 4 6 6 4 3 4 5
3 1 1 2 2 5 4 4 6 1 2 8 9 10 9 8 6 2 5 4 0 5 9 9 8 8 7 8 10 11 12 12 6 6 7 6 6 7 7 7 7 6 7 8 9 9 10 10 7 8 5 5 6 6 6 7 7 7 5 7 7 6 6 6 6 5 5 6 7 6 6 5 5 5 5 3 3 3 5 5 4 5 3 4 5 7 7 7 5 5 6 3 7 6 4 3 3
1 0 1 5 1 5 4 4 5 3 6 4 4 5 8 12 1 4 7 6 6 2 2 7 7 6 7 9 9 11 9 2 5 5 5 4 5 7 8 8 9 11 10 10 11 12 12 10 11 10 7 7 7 8 8 8 8 8 7 7 6 5 7 8 6 7 8 6 6 5 4 3 5 8 8 4 3 1 1 4 4 4 4 4 3 4 4 5 5 6 7 5 1 6 4 6 6
1 2 2 1 5 5 9 4 3 3 4 4 1 6 10 8 4 3 4 3 6 7 4 4 1 1 3 6 7 7 5 6 6 7 6 6 7 8 9 9 10 12 11 11 11 11 10 11 10 8 8 8 8 8 9 9 8 6 6 4 6 3 3 4 5 5 6 7 6 6 5 4 5 6 8 7 6 7 8 6 5 4 5 5 5 5 5 6 6 7 8 8 6 1 3 4 6
3 1 1 4 3 1 4 2 4 5 1 3 5 7 4 8 3 9 5 6 7 9 11 10 5 5 2 4 5 5 6 8 11 11 11 9 8 8 8 10 9 6 5 6 7 8 4 4 3 4 5 6 6 8 8 5 5 4 3 4 4 4 3 4 4 4 5 7 6 5 5 5 5 5 7 7 6 6 7 7 5 5 6 6 7 7 6 6 5 6 7 6 8 7 4 5 5
1 4 3 2 1 2 4 4 4 3 2 3 6 5 2 7 7 7 6 7 16 15 16 17 14 9 2 2 4 8 11 9 8 8 9 9 10 10 3 2 4 3 3 3 2 3 2 5 6 4 4 6 6 4 6 6 7 6 5 4 4 3 2 4 5 5 6 6 6 6 6 5 5 5 6 6 6 6 5 6 6 6 6 5 5 6 7 8 7 7 8 7 8 9 8 4 6
1 5 9 6 4 4 1 3 4 6 3 4 5 4 1 4 3 7 8 10 15 13 17 16 15 14 12 7 2 3 3 4 8 9 6 2 2 1 1 1 3 4 4 4 3 4 4 4 6 7 7 6 6 5 5 6 8 8 8 8 8 7 6 7 9 9 7 7 7 5 5 5 5 5 6 6 6 5 6 6 6 6 6 5 5 5 5 4 6 7 7 7 7 5 9 7 7
2 6 7 8 5 4 2 1 4 2 2 1 1 7 2 3 9 10 9 8 12 14 17 16 14 14 14 11 9 2 3 2 1 2 2 2 3 3 3 4 4 4 3 3 0 2 4 6 6 7 7 7 7 5 5 2 4 5 8 8 9 8 9 7 5 6 6 5 5 7 6 5 6 6 6 6 6 6 6 6 6 6 5 5 4 5 5 7 7 7 6 6 6 6 6 8 9
3 4 4 4 5 6 4 4 4 3 1 5 5 4 5 2 6 5 9 4 11 16 17 16 14 15 15 13 14 10 6 4 2 2 3 5 5 5 4 4 3 4 4 4 3 2 3 5 6 5 5 5 4 4 6 4 3 4 5 6 6 7 8 7 7 6 4 4 6 7 7 7 7 6 6 6 5 6 6 6 6 5 5 6 6 6 6 6 5 4 6 6 5 6 7 8 8
4 5 7 7 9 4 5 5 3 1 3 2 5 2 5 1 4 6 8 9 12 13 14 15 15 14 15 16 15 14 11 8 3 1 3 5 5 5 5 3 4 6 4 3 2 3 5 7 8 10 7 4 2 2 5 6 5 4 5 5 5 3 3 3 4 4 5 4 6 6 7 7 7 7 6 6 5 5 5 6 6 6 6 6 5 5 5 5 7 7 7 6 7 6 6 5 7
8 5 3 4 5 4 5 4 5 0 3 3 4 0 3 0 5 7 8 5 11 10 11 12 12 12 14 15 16 15 14 12 12 12 8 6 4 6 6 6 6 4 3 3 3 2 2 2 5 7 9 8 7 5 3 4 4 4 5 5 5 4 3 3 4 5 6 5 6 7 7 6 6 6 6 5 6 5 5 6 6 6 6 6 5 6 6 6 6 6 7 8 7 7 5 6 7
2 6 4 3 7 3 4 6 5 3 1 5 6 2 3 0 3 5 5 5 6 8 7 9 12 14 15 14 13 13 10 12 12 12 11 10 8 7 6 5 2 4 6 8 6 2 1 1 2 2 5 4 7 8 6 7 7 7 7 8 7 7 6 6 6 6 5 5 6 6 6 7 5 6 5 6 6 5 5 6 6 6 5 5 5 6 7 7 7 7 6 5 7 8 7 6 4
5 2 3 4 1 6 4 3 4 3 3 4 3 2 2 4 1 3 6 8 9 8 10 11 12 12 12 12 11 11 12 11 11 11 11 10 11 9 7 7 5 5 6 8 4 3 3 4 4 7 2 2 2 7 8 8 7 7 4 4 2 3 6 5 7 8 6 7 6 6 5 6 6 5 5 5 5 5 6 6 5 5 5 6 7 6 5 5 5 5 5 6 6 6 6 7 5
5 6 7 7 2 2 2 1 2 4 5 1 4 3 6 5 1 4 7 8 10 10 9 9 11 11 11 12 13 11 11 12 12 12 11 11 11 10 9 9 7 7 7 8 8 7 6 5 5 8 5 2 2 3 7 5 3 6 4 7 4 1 4 6 7 7 6 7 6 6 6 6 6 6 6 6 6 6 6 5 5 5 4 5 5 5 4 4 5 5 6 6 6 7 7 8 7
6 6 6 6 2 1 3 2 1 3 5 3 1 1 6 2 4 5 7 8 9 10 9 10 11 12 12 13 12 12 12 12 11 11 11 11 11 10 11 11 8 9 10 9 8 6 3 3 5 7 7 6 4 6 5 3 8 6 4 6 7 7 7 7 6 7 7 6 5 6 7 6 6 7 7 8 7 5 4 5 5 5 4 4 5 5 5 5 5 6 5 6 7 6 6 7 8
7 3 9 7 7 4 2 3 4 7 6 1 3 2 4 5 3 7 7 8 9 9 9 9 11 11 11 11 12 12 13 12 10 10 11 11 12 12 10 10 10 11 12 10 8 7 4 2 2 4 5 4 5 4 1 6 4 4 2 1 4 5 7 7 7 6 6 6 6 6 6 5 6 6 7 7 4 6 5 5 5 5 4 5 4 4 4 4 5 4 4 5 5 5 6 6 6
0 4 7 7 6 7 3 5 4 2 2 2 5 1 1 3 6 9 7 8 9 9 11 12 12 12 11 12 12 11 10 11 11 11 11 12 11 12 11 12 11 11 12 11 9 5 4 3 3 3 2 1 3 2 1 1 3 4 3 2 4 3 5 6 5 5 5 5 6 7 6 6 5 6 7 4 4 6 6 6 5 5 4 4 5 5 5 5 5 5 5 5 6 4 6 7 6
3 4 4 4 3 9 5 1 0 4 6 1 0 3 4 3 5 9 8 10 9 9 11 11 12 12 12 11 11 11 10 10 10 10 11 12 12 12 11 12 12 12 11 11 12 11 6 3 3 5 4 3 4 2 1 4 6 5 7 7 7 6 7 8 8 7 6 5 5 5 6 5 5 5 6 4 5 5 6 6 6 6 5 5 4 4 4 4 5 5 5 5 6 5 6 7 5
7 2 6 2 4 5 6 5 3 3 4 1 2 2 3 2 0 4 9 9 8 10 10 11 11 12 12 11 11 11 11 10 10 11 10 11 11 12 12 11 12 12 13 13 13 13 11 7 5 6 4 2 3 6 6 6 7 8 8 5 4 5 3 1 3 6 5 5 4 4 3 4 6 6 5 4 4 5 5 7 6 6 5 5 5 4 4 5 5 5 5 5 5 5 5 4 5
7 5 3 5 1 2 3 5 0 1 0 1 4 3 3 1 1 0 6 8 8 9 9 9 11 11 10 10 11 11 12 11 12 12 12 12 12 12 12 12 13 12 12 12 12 12 12 13 11 7 6 3 2 3 7 9 8 7 7 7 5 2 2 4 4 5 6 5 5 4 5 5 4 4 5 5 5 5 6 6 6 5 5 5 4 4 5 6 6 6 5 5 5 6 6 6 4
4 3 3 1 5 3 3 4 4 7 2 3 1 2 3 1 1 3 9 8 8 8 7 9 9 10 8 8 8 9 10 10 11 11 12 12 12 13 13 13 13 13 12 11 11 10 11 11 12 13 11 5 3 4 5 5 3 3 6 6 6 6 9 7 5 6 6 6 4 3 4 4 6 5 5 6 6 6 6 7 6 5 5 5 5 5 6 6 6 6 5 5 5 6 6 6 5
1 5 2 2 2 2 5 2 2 3 5 5 6 0 2 1 4 7 9 8 8 8 7 7 7 8 8 7 7 8 9 10 10 11 11 12 12 13 13 12 12 12 11 12 12 12 11 10 11 12 11 12 8 6 6 5 2 3 4 4 6 7 4 3 4 5 4 4 4 3 3 5 4 6 5 5 6 6 6 6 5 5 5 6 7 6 6 6 5 5 5 5 5 6 6 5 5
6 5 2 1 1 4 4 3 2 3 4 4 6 3 1 4 5 7 8 7 8 8 7 7 7 7 7 6 8 8 8 9 10 10 11 11 11 12 12 12 11 11 12 15 13 13 13 13 11 11 11 9 10 9 5 5 3 3 6 4 6 4 5 3 3 4 5 4 4 4 3 3 6 6 7 7 7 6 6 5 4 5 5 5 6 6 6 6 6 5 6 4 5 6 5 5 5
Wind_Direction
260 7 206 171 78 101 63 359 179 306 73 255 311 189 265 239 265 331 279 310 82 2 267 16 31 23 177 179 130 124 50 115 178 138 211 238 285 140 123 123 127 131 139 138 133 131 129 129 127 125 129 129 126 124 124 124 121 119 116 115 114 113 114 114 114 114 114 115 117 117 118 117 116 115 114 114 113 112 110 108 104 103 106 111 112 112 104 90 93 89 88 83 80 83 80 77 73
239 122 105 135 80 69 282 121 98 359 34 12 250 134 251 269 79 223 246 236 215 140 198 94 77 81 81 99 113 82 26 21 234 122 71 76 83 72 129 133 138 139 138 133 130 128 128 129 127 126 129 131 129 127 127 125 123 120 118 116 114 114 115 115 117 117 117 118 119 119 120 119 117 116 115 113 113 114 113 112 112 112 110 109 114 112 103 101 94 94 90 85 85 84 81 68 64
259 101 33 27 22 79 93 40 291 44 105 245 270 211 313 307 214 248 231 225 157 154 178 104 107 84 67 78 29 29 217 12 66 81 106 166 119 177 119 122 127 134 134 129 130 128 128 131 131 130 131 133 131 130 129 126 125 123 119 117 116 115 116 118 118 119 120 120 121 121 121 120 119 119 117 116 115 114 115 115 114 114 114 111 108 110 107 105 103 97 91 89 84 77 78 68 66
76 33 128 74 294 22 69 31 87 127 141 215 293 268 212 208 235 224 249 250 176 160 130 18 45 296 100 53 101 74 53 44 35 138 129 174 135 131 121 121 124 129 124 127 125 128 128 133 133 133 134 134 133 132 131 129 126 124 122 120 117 119 119 120 121 122 122 123 123 124 123 122 122 121 118 118 115 115 111 108 112 114 113 109 111 110 108 106 105 101 93 92 88 84 74 68 63
57 12 79 93 108 358 101 171 141 103 218 200 181 268 233 230 253 284 273 190 230 197 33 136 70 350 83 113 115 112 216 104 115 148 96 75 115 120 119 122 125 128 128 124 124 125 132 134 133 133 134 136 133 136 135 130 129 125 122 122 122 122 124 125 126 125 124 125 125 126 125 124 124 123 122 121 118 108 100 106 106 104 101 101 101 100 101 103 101 100 99 90 83 75 71 66 60
51 51 353 88 86 186 51 51 56 213 229 150 235 253 235 232 249 266 283 308 256 143 162 82 146 182 31 10 64 92 131 154 163 59 113 132 128 127 124 126 129 127 127 123 124 124 131 131 131 133 136 135 136 138 134 130 129 127 126 126 128 128 131 131 130 129 128 127 127 128 128 127 126 127 127 123 111 105 109 109 105 105 105 105 104 102 100 97 94 89 85 82 80 77 71 67 63
227 47 355 26 9 60 156 137 225 211 264 167 238 262 259 277 247 344 301 325 46 84 12 135 116 98 82 354 50 56 308 123 111 136 120 130 124 126 131 124 122 123 120 121 122 125 131 132 133 136 137 137 140 139 135 132 132 132 130 132 133 135 135 136 135 133 130 129 128 129 129 129 129 129 126 118 112 113 113 111 108 107 105 103 101 99 96 93 88 86 84 83 81 78 75 70 60
81 109 271 109 217 51 104 194 246 164 274 183 237 258 274 263 280 296 277 128 271 152 49 137 57 87 127 339 124 325 20 37 102 102 111 120 122 121 123 122 119 123 123 120 124 131 137 134 138 140 139 137 140 140 139 137 136 135 136 138 138 139 139 137 135 132 134 132 131 129 133 132 129 128 124 121 120 119 115 110 108 106 106 105 102 100 97 95 91 89 87 83 81 78 72 63 59
349 86 290 78 54 30 68 227 248 234 283 282 264 252 274 271 279 278 303 296 88 74 125 153 334 85 221 44 45 18 38 84 94 106 115 121 123 124 124 129 128 129 130 130 130 133 130 141 141 142 142 141 141 142 141 141 140 140 140 140 139 137 138 136 135 134 134 134 132 131 133 132 129 129 128 126 124 120 110 111 110 108 106 104 102 101 101 99 97 93 89 84 79 73 67 65 62
18 92 218 143 132 241 348 293 147 243 223 253 254 259 246 268 291 181 221 4 282 125 56 52 61 103 108 76 76 14 90 104 106 102 117 126 129 126 124 128 133 132 133 130 131 130 137 143 142 143 143 144 146 146 145 146 144 141 141 138 135 136 134 135 137 138 137 136 133 132 134 132 129 130 131 130 128 117 116 115 112 111 110 107 104 102 102 102 100 97 90 84 77 72 68 61 60
19 0 144 77 43 210 235 273 261 301 258 283 287 260 257 258 236 107 197 128 35 82 221 108 54 88 82 70 49 52 98 113 116 129 143 134 127 125 122 126 131 131 131 129 126 132 143 142 147 143 143 144 146 146 146 146 143 141 139 137 136 137 138 140 141 141 138 135 135 133 133 131 129 135 136 132 126 122 120 118 114 114 114 112 108 105 104 106 103 99 93 86 80 76 69 60 58
47 134 29 111 183 163 231 206 276 272 281 275 266 261 244 196 156 117 102 93 59 127 262 98 157 151 72 77 95 88 96 96 129 142 138 128 115 116 118 116 119 120 121 122 127 135 138 146 145 147 146 147 149 150 150 147 144 143 142 141 142 143 145 145 144 141 139 138 135 134 131 133 137 140 136 128 124 121 119 116 115 117 117 115 112 110 108 107 105 100 96 89 82 76 68 62 65
135 102 90 88 220 119 224 257 255 284 312 284 226 277 214 161 114 134 92 93 70 106 299 135 146 105 98 118 117 110 94 167 158 142 129 108 98 101 97 103 114 121 125 131 137 136 136 138 140 141 151 154 153 153 152 149 146 146 145 145 146 147 148 146 142 140 138 136 133 133 132 136 143 141 136 126 126 124 122 121 122 122 121 120 116 114 112 109 105 102 97 91 84 76 69 64 71
121 181 121 211 74 167 191 253 291 306 297 253 246 268 354 64 237 152 121 92 198 143 268 134 110 105 96 114 129 124 178 178 146 121 102 98 103 110 116 124 129 133 135 136 137 134 129 126 134 146 152 153 154 154 150 147 147 148 147 147 148 149 148 148 144 139 134 133 134 134 137 137 141 138 131 129 130 128 124 124 123 125 126 124 121 119 117 110 104 102 96 92 84 78 74 71 77
216 184 81 121 349 62 252 172 215 162 265 262 279 345 14 38 92 324 121 114 19 2 106 45 164 41 197 156 159 188 187 166 127 113 112 116 118 120 121 125 126 128 130 134 133 133 128 128 132 140 145 142 144 138 148 153 150 152 152 150 150 151 151 150 146 139 136 136 138 138 139 141 141 139 138 132 130 131 128 125 125 127 130 130 124 122 118 111 103 97 92 88 85 83 80 78 81
191 90 89 98 253 169 269 191 260 258 267 235 273 350 7 80 104 120 297 165 129 82 52 300 52 102 139 171 182 170 153 130 125 120 115 112 110 106 104 98 99 116 115 126 130 123 124 125 136 143 143 145 144 148 153 156 160 155 152 150 149 151 152 148 145 142 142 141 144 146 146 147 146 141 140 135 135 135 129 128 130 131 136 133 126 123 120 113 104 96 90 86 85 84 80 79 87
99 79 9 51 281 154 260 174 119 246 265 281 300 33 98 10 317 86 326 47 110 97 67 4 309 45 153 199 162 125 123 124 118 116 111 107 109 104 97 100 108 97 83 126 127 128 129 138 152 160 160 150 145 146 145 147 163 155 150 148 149 150 148 147 145 148 147 150 148 148 144 134 133 142 141 138 140 137 133 132 134 138 141 138 130 124 121 111 105 96 90 87 86 81 74 86 106
85 135 119 278 195 215 219 208 195 93 272 285 321 27 92 47 359 20 27 45 75 60 57 10 35 40 122 110 106 109 116 119 126 120 114 107 101 105 67 74 131 144 144 152 144 142 149 163 164 144 126 123 124 119 108 110 134 150 124 143 140 150 152 150 149 149 148 137 151 139 117 126 127 131 141 141 138 142 140 139 140 143 147 142 136 126 117 112 104 99 95 93 86 78 82 78 102
120 142 120 227 186 239 180 226 265 358 273 276 292 320 79 107 136 260 95 276 72 59 40 62 71 43 61 94 101 108 114 111 110 102 106 102 92 77 58 15 312 165 165 152 151 159 146 133 117 121 124 124 122 100 97 85 98 83 110 130 150 155 160 144 126 140 96 109 87 96 101 100 124 136 134 143 145 145 145 142 142 149 151 149 142 130 124 118 109 102 102 96 87 83 78 83 102
228 116 220 245 205 248 248 239 279 272 247 263 323 330 9 206 171 123 168 184 66 137 139 28 113 134 123 118 114 115 111 106 107 113 110 100 106 123 139 171 180 211 174 160 155 131 122 104 109 110 125 124 124 116 99 101 97 111 124 132 124 138 140 137 113 111 113 98 106 94 98 124 121 134 156 148 142 143 148 144 148 154 155 148 145 129 128 128 121 112 99 94 76 79 89 101 106
275 126 205 234 207 239 274 263 256 277 304 287 110 317 32 348 59 112 150 87 289 256 223 160 181 157 149 142 126 120 114 105 117 127 115 118 127 155 171 172 171 156 171 132 120 130 115 107 106 116 127 142 138 131 131 125 118 128 123 126 124 130 134 139 114 115 121 118 114 111 123 140 133 131 131 120 122 138 127 133 141 132 135 147 128 93 108 103 87 76 76 78 68 79 91 97 108
113 215 239 184 339 187 261 273 271 268 281 265 246 67 253 288 77 84 130 138 236 219 200 189 166 158 148 148 129 126 125 119 121 114 115 126 139 165 198 144 136 142 151 151 158 144 134 117 119 136 143 143 131 116 118 131 126 120 118 128 112 112 134 138 123 127 132 133 128 133 132 129 116 111 119 124 124 135 134 138 136 135 130 130 97 108 91 102 97 91 100 96 86 85 91 92 106
241 298 243 217 221 233 286 192 244 242 272 253 333 292 154 45 266 185 148 177 235 222 164 161 164 161 151 128 131 136 132 128 133 133 136 138 155 186 180 199 149 153 164 170 155 150 130 119 119 133 137 141 137 130 125 117 121 117 118 132 130 143 154 148 152 155 160 146 143 145 142 141 140 139 148 149 148 155 148 148 146 148 145 133 126 135 159 113 111 115 104 101 106 100 88 89 106
195 250 259 275 196 230 250 273 287 320 246 236 218 20 296 2 310 146 200 230 269 167 146 139 120 120 131 129 142 140 133 132 132 141 149 160 169 186 169 172 150 131 149 173 153 147 143 130 132 140 149 149 150 145 140 137 141 141 159 177 164 175 158 161 159 161 155 155 156 158 149 151 153 155 161 160 163 165 164 153 144 149 154 149 147 165 177 99 73 91 110 97 105 103 97 101 115
205 266 267 260 257 239 249 239 252 265 261 282 345 165 245 183 208 9 282 99 130 135 121 116 120 126 130 128 135 132 129 125 130 144 152 162 150 171 148 126 177 163 163 171 164 152 149 139 139 151 154 153 152 146 150 147 153 154 166 165 166 186 161 161 158 156 161 167 165 163 157 153 156 157 167 169 159 172 160 155 161 166 161 165 156 194 182 166 195 155 146 104 108 103 112 124 128
208 224 234 280 262 255 238 253 248 239 258 273 59 254 274 241 204 248 250 105 136 130 116 122 125 134 136 136 140 138 136 135 139 150 160 152 158 170 184 183 177 182 180 162 166 171 158 147 153 162 154 158 155 151 159 159 166 166 173 169 169 180 165 152 157 166 171 171 173 176 172 164 168 167 167 165 167 172 175 168 167 171 170 169 169 183 200 183 203 200 132 102 112 126 133 142 131
172 222 232 246 253 260 243 210 231 223 217 158 200 252 256 321 147 290 328 182 129 117 120 125 136 147 140 140 138 141 139 149 152 151 141 153 171 186 183 173 185 197 182 183 178 172 161 148 153 157 152 158 160 169 169 172 174 180 175 166 174 169 158 155 164 169 175 184 181 180 178 171 164 164 164 166 170 166 179 174 185 180 175 177 181 191 179 194 197 196 143 122 128 141 146 140 135
258 235 290 259 266 259 235 219 235 111 266 187 177 237 275 302 109 217 174 154 141 128 133 140 145 152 143 138 139 141 139 148 150 157 160 168 180 187 186 184 190 196 193 200 182 161 158 154 148 157 161 158 164 177 173 172 182 182 170 164 172 160 155 164 168 171 185 188 184 182 180 173 166 169 168 168 168 167 177 187 186 184 199 189 190 191 187 196 187 129 94 113 132 140 140 129 130
264 324 328 292 359 335 189 193 226 169 242 148 167 15 306 309 235 244 233 164 144 141 146 146 155 155 141 139 138 147 156 160 164 170 179 182 179 184 187 196 186 194 205 194 166 166 163 148 146 160 163 161 172 185 180 173 173 175 169 173 168 162 164 164 173 183 185 188 184 184 180 174 173 171 175 173 169 171 173 183 191 202 206 196 192 190 154 155 112 101 97 107 123 129 128 111 99
348 68 164 323 357 339 284 281 291 155 257 167 160 297 274 261 253 337 224 144 121 124 140 153 158 160 145 144 149 148 159 168 184 186 180 185 184 187 189 196 200 195 191 155 148 175 166 153 162 163 166 169 184 189 173 165 171 172 165 162 166 166 172 172 180 183 183 182 181 184 180 182 179 178 171 172 166 170 174 183 189 205 208 202 193 170 156 156 132 119 132 132 149 150 154 145 133
231 257 70 211 13 269 292 71 196 157 311 190 84 217 286 289 283 120 239 161 143 156 163 156 162 159 151 153 153 160 173 186 188 190 190 189 190 191 193 192 197 188 159 159 187 175 160 171 185 182 174 182 187 182 164 156 157 167 161 161 171 174 170 175 176 176 181 179 178 185 187 187 183 179 177 168 170 174 178 183 189 197 185 171 161 167 153 149 140 143 143 130 123 114 133 149 142
10 17 283 323 150 275 300 309 144 152 336 17 96 267 248 278 285 100 204 179 158 159 172 164 166 170 160 155 156 160 171 188 214 207 198 195 196 193 188 192 189 172 179 178 174 174 183 182 191 196 186 187 182 162 151 154 161 160 144 152 137 152 160 181 181 184 180 178 184 185 190 191 184 180 177 173 169 179 184 181 189 165 152 125 129 139 131 139 141 136 147 142 125 133 140 115 86
355 105 264 298 4 257 349 349 330 168 123 344 159 222 329 304 288 331 95 172 185 172 179 174 172 168 159 155 151 150 157 190 207 213 210 201 206 195 184 181 184 178 169 170 178 183 195 199 200 207 202 193 158 153 144 138 138 143 147 146 145 150 167 185 191 175 178 189 190 190 190 192 186 181 180 179 174 171 117 63 349 317 121 119 117 113 108 111 132 132 120 155 149 149 146 123 106
318 6 152 222 94 320 261 304 3 242 160 238 313 214 245 245 277 359 58 198 191 195 181 162 164 167 162 150 145 147 166 185 199 205 208 203 199 183 173 179 171 170 182 181 183 190 198 206 218 227 244 90 144 155 144 133 134 134 141 142 151 153 162 179 186 183 195 196 195 195 192 193 189 181 177 173 153 121 121 171 143 249 103 117 111 102 116 128 89 90 134 88 106 135 142 146 136
226 328 23 332 343 271 238 37 263 74 351 225 273 236 260 266 281 327 342 266 200 202 164 165 168 163 156 154 147 156 178 193 205 206 204 198 185 164 166 176 176 177 187 185 181 189 198 216 234 262 313 163 139 137 126 121 122 125 124 146 157 156 156 164 175 184 189 180 226 202 192 198 166 126 182 175 162 157 151 153 135 147 162 142 124 114 120 122 113 50 188 115 81 60 141 144 134
166 151 162 175 351 303 315 246 263 239 267 267 232 226 245 258 274 320 348 2 207 174 143 135 132 141 156 152 156 171 190 204 204 198 204 203 184 169 176 183 186 180 183 188 186 185 201 216 235 256 213 185 154 128 128 123 131 145 167 163 175 184 168 167 178 190 190 203 205 209 198 194 151 127 189 149 174 149 146 145 148 152 199 150 134 127 136 157 159 149 174 131 122 98 68 109 124
144 95 109 286 269 287 278 260 257 197 233 231 224 228 242 258 250 274 309 7 49 135 157 161 164 160 166 168 177 185 196 203 173 187 191 184 171 176 182 185 185 180 188 187 187 196 204 203 206 223 203 198 172 152 157 154 162 166 176 185 192 185 183 176 172 180 206 209 195 201 207 194 143 136 168 130 169 167 139 138 153 160 170 157 149 152 154 173 161 147 136 124 133 128 126 135 129
170 228 304 295 72 284 264 275 307 295 169 270 211 225 248 249 89 341 343 10 349 331 189 177 168 172 179 174 179 194 194 128 136 180 199 175 167 178 184 190 185 184 193 186 193 199 201 199 206 207 197 196 190 178 175 179 184 188 180 190 184 172 182 189 178 179 195 198 198 208 209 168 143 153 154 175 125 93 71 142 197 167 163 149 154 136 140 160 155 144 136 120 126 148 144 159 160
90 200 244 5 284 242 279 291 286 309 150 286 123 181 235 265 330 46 28 22 10 6 351 329 311 169 189 193 177 183 181 186 171 195 196 191 180 182 193 199 200 199 184 188 198 202 203 204 214 209 204 198 195 187 182 189 188 181 181 174 180 165 186 183 175 172 179 183 196 190 181 158 141 156 151 170 175 180 183 182 179 169 164 154 147 149 152 168 169 157 157 146 137 110 107 162 176
150 256 155 223 240 10 305 289 318 1 88 223 166 178 277 336 322 75 22 44 38 25 34 28 39 104 144 213 172 177 195 187 194 192 191 193 196 186 198 207 208 193 187 197 207 223 230 245 280 281 265 236 209 197 193 180 165 150 138 125 161 163 170 169 167 167 178 178 186 162 165 150 137 140 155 169 180 189 179 176 166 170 176 181 165 158 162 175 168 166 155 150 145 147 154 178 199
294 192 185 134 172 232 173 257 325 324 3 76 86 51 347 3 6 13 11 358 40 18 28 30 26 15 340 151 151 176 185 195 201 197 196 195 197 201 183 356 358 3 27 12 320 280 256 230 235 232 257 278 272 231 183 155 146 139 136 111 125 117 128 168 169 195 188 184 177 152 161 153 152 144 169 181 184 186 178 169 166 172 180 183 171 164 171 179 179 173 166 154 172 160 164 164 195
308 238 206 193 209 261 306 321 29 27 342 354 117 44 158 318 343 25 349 15 37 20 35 28 19 18 22 12 282 184 197 201 212 210 205 196 197 56 121 42 33 33 35 1 344 308 328 296 254 224 210 221 244 249 207 165 165 161 160 162 167 178 190 188 194 190 184 183 176 142 143 155 141 168 199 190 187 174 174 170 167 170 180 176 178 177 167 167 179 170 175 171 175 184 162 161 180
131 263 196 208 204 199 138 305 67 4 110 351 49 131 202 324 18 357 357 11 31 28 34 27 23 20 21 23 7 26 85 76 323 317 7 20 14 24 37 27 33 52 44 8 15 287 305 309 287 260 236 212 214 221 224 209 166 170 175 182 184 190 200 209 199 193 190 175 137 144 149 138 169 186 197 195 185 177 170 169 171 179 176 172 171 163 180 191 187 181 167 172 185 164 157 166 178
222 244 195 164 143 171 187 107 119 202 242 297 33 106 141 349 341 360 344 20 36 34 27 20 21 23 25 25 34 38 34 52 84 37 40 49 57 54 71 50 20 29 28 33 13 343 296 307 314 285 264 261 234 192 201 209 195 173 185 194 196 200 207 206 191 191 171 154 148 144 144 161 178 193 207 198 185 172 169 171 176 177 172 179 180 185 189 194 186 175 173 172 167 175 171 171 175
213 246 165 168 181 173 139 110 130 163 109 271 318 355 70 345 290 342 10 27 21 30 25 20 22 26 29 32 31 32 33 32 34 55 39 58 74 68 98 98 38 31 32 58 26 347 357 355 353 346 328 321 320 248 201 201 192 174 183 197 213 220 213 206 185 178 173 157 152 141 150 158 184 196 200 193 189 172 172 179 182 181 179 181 189 191 186 186 188 176 168 167 178 182 183 180 173
259 224 86 72 71 73 125 110 118 354 83 238 267 304 116 259 310 356 1 43 23 16 19 20 22 29 34 35 36 37 36 34 34 35 34 41 67 61 47 48 39 7 320 248 185 125 98 79 29 11 335 342 327 294 257 223 206 161 173 193 199 193 182 183 180 175 179 172 162 151 158 168 174 190 198 200 192 178 174 185 189 183 183 178 186 189 182 186 192 187 185 183 179 179 182 177 188
100 104 102 43 46 50 28 62 101 78 144 252 238 3 131 124 309 12 6 30 16 8 20 21 21 26 36 40 39 36 32 36 38 37 33 35 43 58 63 61 19 343 320 320 355 31 77 36 76 209 219 216 264 271 250 233 214 204 188 184 188 179 179 177 180 183 172 168 175 163 158 172 180 186 188 200 195 177 180 192 188 185 174 174 183 182 188 189 190 188 185 183 184 181 176 180 186
126 125 116 97 18 15 27 345 38 133 273 255 278 98 85 146 300 29 32 43 31 33 32 28 31 31 32 40 41 33 31 30 34 36 33 29 33 28 24 20 16 7 327 303 307 334 313 277 260 233 200 165 239 275 248 227 226 231 206 152 168 153 160 182 191 188 184 172 181 170 166 161 179 182 190 195 191 179 181 192 192 186 166 171 191 189 186 189 182 177 178 187 189 184 172 174 177
91 91 62 120 230 52 242 7 171 185 185 224 181 110 45 28 157 71 63 38 46 42 36 35 37 36 34 39 43 37 32 31 31 27 25 26 28 25 23 16 0 337 317 323 334 347 358 349 310 289 289 46 27 337 263 255 359 326 343 74 87 161 227 197 197 197 190 189 179 176 169 175 167 180 196 200 199 182 182 178 192 193 172 185 193 184 185 183 178 181 188 192 183 180 179 176 178
113 126 133 99 131 74 184 275 234 324 294 267 191 247 90 139 92 70 66 58 52 49 47 40 37 37 36 37 34 33 33 29 26 24 23 21 17 13 16 11 359 342 336 330 329 337 0 354 346 338 355 4 5 19 60 128 229 213 176 156 164 168 194 213 199 199 197 191 184 183 180 181 183 191 195 210 196 176 173 185 195 197 181 183 197 197 183 182 182 188 191 192 189 185 172 180 184
193 140 140 169 139 156 188 186 170 195 184 238 277 70 204 150 171 98 75 70 63 57 52 48 44 40 41 40 39 30 24 24 23 22 20 15 13 11 7 3 1 354 346 341 331 320 311 332 3 327 325 6 14 35 183 200 242 2 26 37 199 198 190 200 197 207 197 190 188 187 185 183 189 198 205 215 174 170 175 187 208 203 189 189 200 199 180 177 184 186 192 192 183 177 180 174 180
312 145 78 98 202 144 139 202 150 190 143 46 4 95 62 120 116 96 93 80 67 53 46 42 38 37 37 37 33 26 20 18 15 15 13 12 12 7 5 0 357 356 350 345 331 301 286 280 267 261 249 179 83 73 72 351 12 5 16 307 279 241 219 189 183 199 208 200 191 191 186 185 193 201 221 199 183 175 169 187 201 205 185 185 195 190 178 178 180 185 182 179 183 175 174 179 183
243 97 154 209 181 114 87 54 65 126 64 51 306 116 109 141 100 103 89 73 61 57 47 40 36 32 31 32 27 24 18 13 17 14 10 6 6 4 2 358 355 352 348 341 339 337 321 289 264 258 247 181 160 166 222 162 161 174 222 217 203 223 214 188 182 182 192 196 194 195 186 182 183 207 218 194 193 186 177 186 195 201 188 183 183 184 174 172 173 181 183 177 179 176 175 186 173
86 132 223 112 86 108 124 181 336 58 141 248 33 117 115 52 341 131 102 84 70 59 50 46 41 34 31 20 14 13 9 6 10 15 13 11 7 3 0 355 354 347 348 345 342 340 337 325 287 288 291 265 162 154 191 223 190 193 212 214 216 226 260 277 176 170 173 182 194 186 166 162 193 210 218 202 198 195 195 195 190 197 184 173 182 175 167 168 173 183 186 185 177 167 175 175 181
146 193 176 119 229 219 322 93 257 130 130 106 354 330 78 32 208 261 111 96 82 65 56 49 42 39 37 24 11 7 7 7 7 7 7 6 3 1 357 352 349 345 347 344 342 344 347 353 340 311 309 316 280 237 205 213 206 201 194 195 189 171 193 213 167 158 153 176 196 185 180 187 188 209 221 213 203 204 204 201 190 189 172 173 169 168 165 173 180 180 183 177 169 169 172 180 183
52 82 44 326 100 149 133 196 168 115 197 90 328 355 154 358 349 313 108 93 89 79 58 53 47 44 38 27 14 9 7 7 6 7 6 2 359 356 356 352 350 346 341 342 341 346 350 347 349 351 339 311 309 287 272 268 256 233 195 179 169 179 200 209 174 151 153 163 184 195 188 178 197 195 218 216 215 207 205 201 188 177 167 163 167 167 172 174 179 183 175 175 173 171 172 176 175
358 46 348 11 23 226 108 47 80 173 163 159 140 154 271 344 6 77 87 85 84 84 75 61 54 49 44 36 25 14 14 10 10 8 3 0 357 355 355 352 349 343 342 343 348 348 345 348 349 344 343 342 327 278 278 281 311 284 273 207 181 195 176 186 173 160 146 166 160 171 203 201 173 199 193 211 216 216 211 203 180 174 172 172 169 169 172 169 174 174 177 175 167 174 171 169 164
137 136 93 176 120 120 126 227 22 62 100 178 133 203 205 57 55 73 76 69 81 79 80 73 63 54 48 41 32 28 20 18 16 11 6 1 1 357 355 353 348 348 349 351 345 345 348 350 344 343 340 348 343 338 294 268 266 239 239 234 221 190 160 179 165 139 152 171 170 166 182 211 196 199 178 196 202 206 210 209 192 180 175 170 167 164 163 164 169 169 171 175 169 172 169 164 169